Weather Service Report


224 
ASUS41 KALY 271210
RWRALY

NEW YORK STATE HOURLY WEATHER ROUNDUP
NATIONAL WEATHER SERVICE ALBANY NY
800 AM EDT FRI MAY 27 2016

NOTE: "FAIR" INDICATES FEW OR NO CLOUDS BELOW 12,000 FEET WITH NO
SIGNIFICANT WEATHER AND/OR NO OBSTRUCTIONS TO VISIBILITY.

NYZ032-033-038>043-046>054-057>066-NYZ062>081-082-084-271300-
EAST

  
CITY           SKY/WX    TMP DP  RH WIND       PRES   REMARKS
ALBANY         PTSUNNY   73  54  51 S8        30.03R                  
GLENS FALLS    CLOUDY    74  58  57 S7        30.02R                  
POUGHKEEPSIE   PTSUNNY   73  59  61 SE5       30.05R                  
NEWBURGH       MOSUNNY   72  61  68 VRB6      30.07                   
MONTGOMERY     CLOUDY    70  62  76 CALM      30.06R                  
WHITE PLAINS   CLOUDY    67  59  75 CALM      30.07S                  
ISLIP          PTSUNNY   68  62  81 S6        30.08S                  
NEW YORK CITY  PTSUNNY   73  64  73 S7          N/A                   
CENTRAL PARK   CLOUDY    75  61  61 CALM      30.09R                  
$$

NYZ005>009-017-018-044>046-055-056-271300-
CENTRAL

  
CITY           SKY/WX    TMP DP  RH WIND       PRES   REMARKS
FULTON         CLOUDY    73  64  73 S7        30.00R                  
SYRACUSE       CLOUDY    75  64  68 S7        30.00R                  
ROME           PTSUNNY   71  62  73 E5        30.03R                  
ELMIRA         SUNNY     67  60  78 CALM      30.05R HAZE             
BINGHAMTON     CLOUDY    68  61  78 SW3       30.08R                  
MONTICELLO     MOSUNNY   64  64 100 CALM      30.11F                  
$$

NYZ026>034-041>043-087-271300-
NORTH

  
CITY           SKY/WX    TMP DP  RH WIND       PRES   REMARKS
WATERTOWN      CLOUDY    73  62  68 SW8       29.98R                  
FORT DRUM      NOT AVBL                                               
MASSENA        CLOUDY    65  55  70 CALM      29.97R                  
SARANAC LAKE   CLOUDY    68  57  68 SW6       30.03R                  
PLATTSBURGH    CLOUDY    68  59  73 CALM      29.98R                  
$$

NYZ001>004-010>016-019>021-085-271300-
WEST

  
CITY           SKY/WX    TMP DP  RH WIND       PRES   REMARKS
NIAGARA FALLS  MOSUNNY   73  64  73 SW12      29.99R                  
BUFFALO        MOSUNNY   74  65  73 SW10G21   29.99S                  
DUNKIRK        PTSUNNY   72  65  78 S9        30.01S                  
JAMESTOWN      CLOUDY    64  63  94 S3        30.06S                  
WELLSVILLE     PTSUNNY   68  63  84 SW7       30.10S                  
ROCHESTER      MOSUNNY   71  64  78 SW10      30.00R                  
PENN YAN       SUNNY     70  61  73 S10       30.03S                  
$$

             KEY
       WCI = WIND CHILL INDEX
       VSB = VISIBILITY
       HX  = HEAT INDEX
$$
  

Return to Home page


Western Regional Climate Center, wrcc@dri.edu